Regional Weather Roundup
Issued by NWS

Home | Current Version | Previous Version | Text Only | Print | Product List | Glossary Off
Versions: 1 2 3 4 5 6 7 8 9 10 11 12 13 14 15 16 17 18 19 20 21 22 23 24 25 26 27 28 29 30 31 32 33 34 35 36 37 38 39 40 41 42 43 44 45 46 47 48 49 50

000
ASUS43 KLOT 221408
RWRIL

ILLINOIS REGIONAL WEATHER ROUNDUP
NATIONAL WEATHER SERVICE CHICAGO/ROMEOVILLE IL
800 AM CST WED FEB 22 2017

NOTE: "FAIR" INDICATES FEW OR NO CLOUDS BELOW 12,000 FEET WITH NO
SIGNIFICANT WEATHER AND/OR OBSTRUCTIONS TO VISIBILITY.

* THESE STATIONS ARE NOT UNDER NWS QUALITY CONTROL. THEY ALSO MAY NOT
  REPORT WEATHER SUCH AS PRECIPITATION OR FOG.

ILZ001-002-007-009-015-016-024-221500-
NORTHWEST ILLINOIS

CITY           SKY/WX    TMP DP  RH WIND       PRES   REMARKS
MOLINE         CLOUDY    54  51  90 SW10      29.76F FOG
STERLING*      LGT RAIN  52  52 100 SW6       29.78F VSB 1/4
SAVANNA*       FOG       52  52  99 S8        29.75F VSB 1
$$

ILZ003-004-008-010-011-017-018-221500-
NORTH CENTRAL ILLINOIS

CITY           SKY/WX    TMP DP  RH WIND       PRES   REMARKS
ROCKFORD       FOG       52  51  97 S7        29.80S VSB 1/8
FREEPORT*      FOG       49  49  99 S12       29.77F VSB 1/4
ROCHELLE*      FOG       52  52 100 S8        29.80S VSB 1/4
DE KALB*       FOG       53  53  99 SW8       29.81R VSB 1/4
PERU*          CLOUDY    54  53  97 SW10      29.81R FOG
$$

ILZ005-006-012>014-019>023-221500-
NORTHEAST ILLINOIS

CITY           SKY/WX    TMP DP  RH WIND       PRES   REMARKS
CHICAGO-OHARE  FOG       53  52  96 SW9       29.78F VSB 3/4
CHICAGO-MIDWAY FOG       54  52  93 S10       29.78F VSB 1/2
AURORA         FOG       54  54 100 SW9       29.81R VSB 1/4
LANSING*       CLOUDY    52  52 100 S9        29.82F FOG
JOLIET*        FOG       53  53 100 S8        29.80F VSB 1/4
WAUKEGAN       CLOUDY    53  53 100 SW10      29.77S FOG
DUPAGE AIRPORT FOG       53  51  93 SW10      29.80R VSB 1/4
KANKAKEE*      FOG       48  47  98 CALM      29.83F VSB<1/4
WHEELING       CLOUDY    52  52 100 SW9       29.80R FOG
MORRIS*        FOG       52  52  98 S10       29.78F VSB 1/4
ROMEOVILLE*    DRZL/FOG  52  52 100 SW9       29.80F VSB 1/4
NORTHERLY ISL    N/A     54  52  93 S14         N/A
$$

LMZ740>746-221500-
SOUTHERN LAKE MICHIGAN

STATION/POSITION SKY/WX   TEMP    WIND        PRES    VSBY  WAVE
                          AIR SEA DIR/SP/G                  HT/PER
                          (F)     (DEG/KT/KT) (MB)    (MI)  (FT/S)
HARRISON CRIB              54     210/ 22/ 23   N/A
BURNHAM HARBOR             54     220/  7/ 12   N/A
CALUMET HARBOR             54     180/  6/  9 1008.8F
BURNS HARBOR               53     190/  9/ 12 1010.5F
MICHIGAN CITY              53     170/  8/ 10   N/A
$$

ILZ025>027-034>036-040-047-049-050-058-095>099-221500-
WEST-CENTRAL ILLINOIS

CITY           SKY/WX    TMP DP  RH WIND       PRES   REMARKS
QUINCY         FOG       54  54 100 SW14      29.82S VSB<1/4
GALESBURG*     FOG       51  51 100 S13       29.81S VSB<1/4
MACOMB*        FOG       53  53 100 SW9       29.83S VSB 1/2
JACKSONVILLE*  FOG       50  50 100 S8        29.84F VSB<1/4
PITTSFIELD*    FOG       54  54 100 S6        29.85R VSB<1/4
$$

ILZ028>032-037-038-041>044-048-051>054-059>061-221500-
CENTRAL ILLINOIS

CITY           SKY/WX    TMP DP  RH WIND       PRES   REMARKS
PONTIAC        FOG       49  49  99 S6        29.82F VSB<1/4
BLOOMINGTON    FOG       49  49 100 S12       29.83F VSB 1/4
DECATUR        FOG       50  49  96 S8        29.86S VSB<1/4
PEORIA         FOG       53  53 100 SW10      29.81S VSB 1/4
LACON*         FOG       53  53 100 SW7       29.80R VSB 1/2
LINCOLN*       FOG       48  48 100 S7        29.84F VSB<1/4
SPRINGFIELD    FOG       52  51  97 S7        29.84F VSB<1/4
TAYLORVILLE    FOG       49  49 100 S8        29.86S VSB<1/4
$$

ILZ033-039-045-046-055>057-062-063-221500-
EAST-CENTRAL ILLINOIS

CITY           SKY/WX    TMP DP  RH WIND       PRES   REMARKS
CHAMPAIGN      FOG       49  48  97 S9        29.86S VSB<1/4
RANTOUL*       FOG       50  50  99 S3        29.85F VSB<1/4
MATTOON        FOG       50  50 100 S8        29.87S VSB 1/4
PARIS*         FOG       50  50 100 S5        29.89S VSB<1/4
$$

ILZ079-100>102-221500-
SOUTHWEST ILLINOIS

CITY           SKY/WX    TMP DP  RH WIND       PRES   REMARKS
ALTON          FOG       50  50 100 S7        29.88F VSB 1/8
BELLEVILLE     FOG       47  47 100 CALM      29.87F VSB<1/4
CAHOKIA*       FOG       53  51  93 S6        29.88F VSB 1/4
SPARTA*        FAIR      52  52  99 CALM      29.92S FOG
$$

ILZ064>066-069>071-074>076-080>082-084>086-088>090-092>094-221500-
SOUTH-CENTRAL ILLINOIS

CITY           SKY/WX    TMP DP  RH WIND       PRES   REMARKS
CARBONDALE     PTSUNNY   55  55 100 S3        29.91R FOG
CAIRO*         CLOUDY    56  56 100 CALM      29.91S FOG
EFFINGHAM*     FOG       48  48 100 CALM      29.91S VSB<1/4
MARION         PTSUNNY   54  52  94 SE6       29.92R FOG
MT. VERNON     FOG       48  48 100 CALM      29.92R VSB 1/4
CENTRALIA*     CLOUDY    56  56 100 S6        29.90S FOG
SALEM*         FOG       51  50  96 S3        29.90R VSB<1/4
METROPOLIS*    CLOUDY    58  57  97 CALM      29.92S FOG
$$

ILZ067-068-072-073-078-083-087-091-221500-
SOUTHEAST ILLINOIS

CITY           SKY/WX    TMP DP  RH WIND       PRES   REMARKS
LAWRENCEVILLE  FOG       50  50 100 S3        29.91R VSB<1/4
FLORA*         FOG       48  48  98 CALM      29.91S VSB<1/4
FAIRFIELD*     FOG       50  50 100 CALM      29.91R VSB 1/2
HARRISBURG*    FOG       52  52 100 CALM      29.93R VSB 1/2
ROBINSON*      FOG       49  49 100 CALM      29.91S VSB<1/4
CARMI*         FOG       50  50 100 CALM      29.92R VSB<1/4
$$

ABBREVIATIONS USED IN REMARKS
   TC - TEMPERATURE IN CELSIUS
  WCI - WIND CHILL INDEX
   HX - HEAT INDEX
  VSB - VISIBILITY
$$




USA.gov is the U.S. government's official web portal to all federal, state and local government web resources and services.